Weather History for Port Isabel, TX

Change the Weather History Date:

Wednesday, January 23, 2013

  Actual Average Record
Temperature  
Mean Temperature 68 °F -  
Max Temperature 78 °F - - ()
Min Temperature 59 °F - - ()
Cooling Degree Days 4    
Growing Degree Days 18 (Base 50)    
Moisture  
Dew Point 61 °F    
Average Humidity 79    
Maximum Humidity 94    
Minimum Humidity 57    
Precipitation  
Precipitation 0.00 in - - ()
Sea Level Pressure  
Sea Level Pressure 30.26 in    
Wind  
Wind Speed 7 mph (ESE)    
Max Wind Speed 17 mph    
Max Gust Speed 22 mph    
Visibility 7 miles    
Events      
T = Trace of Precipitation, MM = Missing Value Source: NWS Daily Summary

Daily Weather History Graph

Daily Weather History Graph

Search for Another Location

Airport:

Trip Planner

Search our weather history database for the weather conditions in past years. The results will help you decide how hot, cold, wet, or windy it might be!

Date:

Astronomy

Jan. 23, 2013 Rise Set
Actual Time 7:16 AM CST 6:05 PM CST
Civil Twilight 6:52 AM CST 6:30 PM CST
Nautical Twilight 6:24 AM CST 6:58 PM CST
Astronomical Twilight 5:56 AM CST 7:26 PM CST
Moon 3:21 PM CST (1/23) 4:25 AM CST (1/23)
Length of Visible Light 11h 37m
Length of Day
10h 49m
Waxing Gibbous, 89% of the Moon is Illuminated
Jan 23
Waxing Gibbous
Jan 26
Full
Feb 3
Last Quarter
Feb 10
New
Feb 17
First Quarter

Hourly Weather History & Observations

Time (CST) Temp. Dew Point Humidity Pressure Visibility Wind Dir Wind Speed Gust Speed Precip Events Conditions
12:35 AM 60.8 °F 57.2 °F 88% 30.24 in 2.0 mi ENE 4.6 mph - N/A   Partly Cloudy
12:45 AM 60.8 °F 57.2 °F 88% 30.24 in 6.0 mi NE 3.5 mph - N/A   Partly Cloudy
12:53 AM 61.0 °F 57.9 °F 90% 30.24 in 6.0 mi NNE 3.5 mph - N/A   Clear
1:53 AM 61.0 °F 57.9 °F 90% 30.24 in 6.0 mi NNE 4.6 mph - N/A   Clear
2:53 AM 59.0 °F 55.9 °F 90% 30.23 in 1.2 mi North 4.6 mph - N/A   Mostly Cloudy
3:01 AM 60.8 °F 57.2 °F 88% 30.23 in 0.8 mi NNW 4.6 mph - N/A   Mist
3:05 AM 60.8 °F 57.2 °F 88% 30.23 in 2.0 mi North 4.6 mph - N/A   Mostly Cloudy
3:12 AM 60.8 °F 57.2 °F 88% 30.23 in 6.0 mi North 3.5 mph - N/A   Mostly Cloudy
3:53 AM 61.0 °F 57.9 °F 90% 30.23 in 7.0 mi North 3.5 mph - N/A   Mostly Cloudy
4:02 AM 60.8 °F 57.2 °F 88% 30.23 in 7.0 mi NNE 3.5 mph - N/A   Mostly Cloudy
4:53 AM 61.0 °F 57.9 °F 90% 30.23 in 5.0 mi East 3.5 mph - N/A   Clear
5:19 AM 60.8 °F 59.0 °F 94% 30.23 in 1.5 mi SE 4.6 mph - N/A   Partly Cloudy
5:29 AM 60.8 °F 59.0 °F 94% 30.23 in 3.0 mi ESE 3.5 mph - N/A   Partly Cloudy
5:53 AM 60.1 °F 57.0 °F 90% 30.24 in 5.0 mi ESE 4.6 mph - N/A   Clear
6:53 AM 63.0 °F 60.1 °F 90% 30.26 in 5.0 mi East 3.5 mph - N/A   Clear
7:53 AM 63.0 °F 61.0 °F 93% 30.28 in 4.0 mi East 4.6 mph - N/A   Clear
8:53 AM 68.0 °F 64.0 °F 87% 30.29 in 7.0 mi East 4.6 mph - N/A   Scattered Clouds
9:16 AM 71.6 °F 64.4 °F 78% 30.30 in 7.0 mi ESE 8.1 mph - N/A   Mostly Cloudy
9:36 AM 69.8 °F 64.4 °F 83% 30.31 in 7.0 mi ESE 8.1 mph - N/A   Overcast
9:53 AM 72.0 °F 64.0 °F 76% 30.32 in 7.0 mi SE 8.1 mph - N/A   Mostly Cloudy
10:53 AM 75.9 °F 63.0 °F 64% 30.32 in 9.0 mi SE 12.7 mph - N/A   Clear
11:53 AM 78.1 °F 63.0 °F 60% 30.30 in 9.0 mi SE 13.8 mph 19.6 mph N/A   Overcast
12:31 PM 75.2 °F 62.6 °F 65% 30.29 in 9.0 mi ESE 15.0 mph - N/A   Mostly Cloudy
12:43 PM 75.2 °F 62.6 °F 65% 30.28 in 9.0 mi ESE 16.1 mph - N/A   Overcast
12:53 PM 75.9 °F 62.1 °F 62% 30.27 in 9.0 mi ESE 17.3 mph - N/A   Mostly Cloudy
1:01 PM 77.0 °F 62.6 °F 61% 30.27 in 9.0 mi ESE 16.1 mph - N/A   Mostly Cloudy
1:11 PM 78.8 °F 62.6 °F 57% 30.26 in 9.0 mi ESE 16.1 mph - N/A   Scattered Clouds
1:53 PM 75.9 °F 63.0 °F 64% 30.25 in 9.0 mi East 15.0 mph - N/A   Overcast
2:53 PM 77.0 °F 63.0 °F 62% 30.25 in 9.0 mi ESE 17.3 mph 21.9 mph N/A   Clear
3:53 PM 75.9 °F 63.0 °F 64% 30.23 in 9.0 mi ESE 16.1 mph - N/A   Clear
4:53 PM 75.0 °F 62.1 °F 64% 30.22 in 9.0 mi SE 17.3 mph - N/A   Clear
5:53 PM 72.0 °F 62.1 °F 71% 30.23 in 9.0 mi SE 12.7 mph - N/A   Clear
6:53 PM 69.1 °F 61.0 °F 75% 30.25 in 10.0 mi SE 8.1 mph - N/A   Clear
7:53 PM 66.9 °F 61.0 °F 81% 30.26 in 9.0 mi SE 6.9 mph - N/A   Clear
8:53 PM 66.0 °F 61.0 °F 84% 30.27 in 9.0 mi ESE 6.9 mph - N/A   Clear
9:53 PM 64.9 °F 61.0 °F 87% 30.27 in 10.0 mi SE 5.8 mph - N/A   Clear
10:53 PM 66.0 °F 61.0 °F 84% 30.26 in 10.0 mi South 5.8 mph - N/A   Clear
11:53 PM 66.0 °F 62.1 °F 87% 30.26 in 9.0 mi SSE 6.9 mph - N/A   Clear